Overview Statistics Trail Chart Weather Telemetry Raw packets
 

This is the latest recevied weather packets stored in our database for station/object HP1CDW-10. If no packets are shown the sender has not sent any weather packets the latest 10 day(s).

<< 14 15 16 17 18 19 20 >>
Time Temp. Humidity Pressure Rain* Wind** Luminosity Snow
1788372845 36.67° C 45% 1003.7 hPa - - - -
1788372240 36.67° C 45% 1003.9 hPa - - - -
1788371635 36.11° C 46% 1003.8 hPa - - - -
1788371030 36.11° C 46% 1004.1 hPa - - - -
1788370425 36.11° C 47% 1004.1 hPa - - - -
1788369821 36.11° C 47% 1004.3 hPa - - - -
1788369216 35.56° C 47% 1004.3 hPa - - - -
1788368611 36.11° C 47% 1004.3 hPa - - - -
1788368006 36.11° C 47% 1004.4 hPa - - - -
1788367402 36.11° C 46% 1004.5 hPa - - - -
1788366797 36.11° C 47% 1004.7 hPa - - - -
1788366192 36.11° C 47% 1004.8 hPa - - - -
1788365587 35.56° C 46% 1004.9 hPa - - - -
1788364982 35.56° C 46% 1004.9 hPa - - - -
1788364378 35.56° C 46% 1005 hPa - - - -
1788363773 35.56° C 46% 1005.2 hPa - - - -
1788363168 34.44° C 47% 1005.3 hPa - - - -
1788362563 35° C 47% 1005.3 hPa - - - -
1788361958 34.44° C 48% 1005.4 hPa - - - -
1788361354 34.44° C 48% 1005.4 hPa - - - -
1788360749 35° C 47% 1005.5 hPa - - - -
1788360144 34.44° C 48% 1005.7 hPa - - - -
1788359539 33.89° C 49% 1006 hPa - - - -
1788358935 34.44° C 48% 1006 hPa - - - -
1788358292 34.44° C 48% 1006.2 hPa - - - -

* Rain since midnight (hover to see other rain measurements)
** Current wind speed in m/s (hover to see current wind gust speed)